Regional Weather Roundup
Issued by NWS

Home | Current Version | Previous Version | Text Only | Print | Product List | Glossary Off
Versions: 1 2 3 4 5 6 7 8 9 10 11 12 13 14 15 16 17 18 19 20 21 22 23 24 25 26 27 28 29 30 31 32 33 34 35 36 37 38 39 40 41 42 43 44 45 46 47 48 49 50

000
ASUS43 KMPX 220110
RWRMN
WEATHER ROUNDUP FOR MINNESOTA
NATIONAL WEATHER SERVICE TWIN CITIES/CHANHASSEN MN
700 PM CST TUE FEB 21 2017


NOTE: "FAIR" INDICATES FEW OR NO CLOUDS BELOW 12,000 FEET WITH NO
SIGNIFICANT WEATHER AND/OR OBSTRUCTIONS TO VISIBILITY. N/A MEANS
CURRENT SKY AND/OR WEATHER CONDITIONS ARE NOT AVAILABLE.

MNZ060>063-068>070-220200-
   Twin Cities Metro

CITY           SKY/WX    TMP DP  RH WIND       PRES   REMARKS
TWIN CITIES    MOCLDY    58  45  62 S8        29.71R
ST PAUL        MOCLDY    52  45  77 S9        29.72R
CRYSTAL        CLOUDY    54  43  66 S6        29.69S
BLAINE         MOCLDY    55  45  67 S6        29.70S
LAKEVILLE      PTCLDY    52  46  82 S7        29.72S
EDEN PRAIRIE   CLOUDY    55  45  68 S7        29.69S
SOUTH ST PAUL  CLOUDY    55  45  67 S7        29.72S
LAKE ELMO      FAIR      52  45  76 S8        29.72S
$$
MNZ001>005-007-008-013>017-022>024-027-028-220200-
   Northwest Minnesota

CITY           SKY/WX    TMP DP  RH WIND       PRES   REMARKS
BEMIDJI        CLOUDY    41  35  79 W6        29.65S
HALLOCK        CLOUDY    32  30  93 W3        29.69R FOG
ROSEAU         CLOUDY    34  28  80 CALM      29.69R
WARROAD        CLOUDY    32  28  86 CALM      29.69R
THIEF RVR FALL PTCLDY    37  35  92 CALM      29.69R
CROOKSTON      CLOUDY    34  34 100 N3        29.70R FOG
FOSSTON        CLOUDY    36  34  93 SW3       29.68R
DETROIT LAKES  PTCLDY    41  36  81 CALM      29.68S
MOORHEAD       MOCLDY    43  39  87 SW6       29.70R
PARK RAPIDS    CLOUDY    40  33  76 SW3       29.65S
MAHNOMEN       CLOUDY    38  37  96 SW5       29.68R
$$
MNZ006-009>011-018-025>026-220200-
   North Central Minnesota

CITY           SKY/WX    TMP DP  RH WIND       PRES   REMARKS
BAUDETTE       PTCLDY    35  32  88 N3        29.65S
FLAG ISLAND    CLOUDY    34  30  86 N3        29.68S
INTL FALLS     CLOUDY    35  32  88 CALM      29.66S
WASKISH        CLOUDY    36  34  93 CALM      29.66R
BIG FORK       CLOUDY    37  32  81 CALM      29.66S
LONGVILLE      CLOUDY    39  36  87 CALM      29.65F
GRAND RAPIDS   PTCLDY    37  34  89 CALM      29.69R
CRANE LAKE     PTCLDY    28  28 100 CALM      29.68F
ORR            PTCLDY    39  30  70 CALM      29.65R
COOK           CLOUDY    36  32  87 CALM      29.67S
WALKER         CLOUDY    42  35  76 CALM      29.65F
$$
MNZ012-019>021-037-220200-
   Northeast Minnesota

CITY           SKY/WX    TMP DP  RH WIND       PRES   REMARKS
DULUTH         CLOUDY    42  35  76 SE5       29.67F
ELY            PTCLDY    43  32  65 SW5       29.67S
HIBBING        PTCLDY    36  33  89 CALM      29.67R
EVELETH        MOCLDY    41  33  72 SW5       29.68S
DULUTH HARBOR  CLOUDY    36  34  93 CALM      29.70F
TWO HARBORS    CLOUDY    41  36  81 CALM      29.67F
SILVER BAY     CLOUDY    37  34  87 CALM      29.67F
GRAND MARAIS     N/A     35  32  88 NW3       29.69F
G MARAIS ARPRT CLOUDY    34  28  80 CALM      29.69F
$$
MNZ029>031-032-039>041-046>048-054>057-064-220200-
   West Central Minnesota

CITY           SKY/WX    TMP DP  RH WIND       PRES   REMARKS
FERGUS FALLS   MOCLDY    45  41  87 CALM      29.71S
WHEATON        CLEAR     46  43  87 CALM      29.71R
MORRIS         PTCLDY    48  45  87 S3        29.68S
ALEXANDRIA     MOCLDY    46  41  82 SW5       29.68F
ELBOW LAKE     MOCLDY    43  41  93 S3        29.68F
WADENA         CLOUDY    41  37  87 S5        29.67S
GLENWOOD       PTCLDY    46  41  81 SW5       29.70S
APPLETON       CLOUDY    48  43  81 CALM      29.68F
BENSON         CLOUDY    46  39  76 CALM      29.71S
ORTONVILLE     CLEAR     50  43  76 CALM      29.68F
MADISON        CLEAR     50  45  81 CALM      29.69S
WILLMAR        FAIR      50  48  93 CALM      29.71R
$$
MNZ033>034-036-042>043-049>051-058-059-220200-
   Central Minnesota

CITY           SKY/WX    TMP DP  RH WIND       PRES   REMARKS
ST CLOUD       PTCLDY    47  43  86 W3        29.69S
SAUK CENTRE    FAIR      44  42  93 S3        29.69R
PAYNESVILLE    CLOUDY    47  42  84 SW3       29.70S
AITKIN         CLOUDY    41  36  81 SE6       29.65F
PINE RIVER     CLOUDY    43  37  81 CALM      29.70F
BRAINERD       MOCLDY    41  36  82 CALM      29.67S
STAPLES        CLOUDY    41  36  81 SW3       29.68S
LONG PRAIRIE   FAIR      43  39  87 S3        29.68S
LITTLE FALLS   CLOUDY    41  36  81 CALM      29.70R
LITCHFIELD     CLOUDY    52  46  82 CALM      29.70S
BUFFALO        CLOUDY    52  44  73 CALM      29.70S
MAPLE LAKE     CLOUDY    45  43  91 CALM      29.70S
HUTCHINSON     CLOUDY    53  48  83 CALM      29.71S
$$
MNZ037-044-045-052-053-220200-
   East Central Minnesota

CITY           SKY/WX    TMP DP  RH WIND       PRES   REMARKS
PRINCETON      CLOUDY    50  43  76 S3        29.69F
MORA           PTCLDY    45  41  87 SE3       29.70F
CAMBRIDGE      CLOUDY    52  41  66 CALM      29.68S
RUSH CITY      CLOUDY    48  41  76 S3        29.70F
MOOSE LAKE     CLOUDY    41  36  81 CALM      29.66F
HINCKLEY       CLOUDY    43  41  93 S6        29.69S
CLOQUET        CLOUDY    43  36  75 CALM      29.68F
MCGREGOR       CLOUDY    39  36  87 CALM      29.68S
$$
MNZ071>073-080-081-089-090-097-098-220200-
   Southwest Minnesota

CITY           SKY/WX    TMP DP  RH WIND       PRES   REMARKS
MONTEVIDEO     CLEAR     50  41  71 CALM      29.71S
GRANITE FALLS  CLEAR     49  46  90 CALM      29.70S
CANBY          CLEAR     53  43  67 SW5       29.70S
MARSHALL       CLEAR     50  42  74 W8        29.69S
REDWOOD FALLS  CLEAR     55  43  63 CALM      29.69S
OLIVIA         PTCLDY    50  45  81 CALM      29.69S
PIPESTONE      CLEAR     50  39  66 CALM      29.71S
WINDOM         CLEAR     54  45  71 CALM      29.72S
WORTHINGTON    CLEAR     51  44  77 SW5       29.73R
JACKSON        CLEAR     52  41  66 S7        29.74R
TRACY          CLEAR     54  44  71 SW9       29.70S
SLAYTON        CLEAR     48  41  77 SW6       29.71S
$$
MNZ065>067-074>077-082>085-091>093-220200-
   South Central Minnesota

CITY           SKY/WX    TMP DP  RH WIND       PRES   REMARKS
MANKATO          N/A     53  45  74 S8        29.72S
NEW ULM        CLEAR     54  45  71 SW5       29.70F
ST JAMES       CLEAR     54  45  71 S3        29.72S
FAIRMONT       CLEAR     55  44  66 S14       29.73S
GLENCOE        MOCLDY    54  50  86 CALM      29.69S
FARIBAULT      CLEAR     52  46  82 S5        29.74S
OWATONNA       CLEAR     52  45  76 S10       29.74F
WASECA         CLEAR     52  46  82 S10       29.75S
ALBERT LEA     CLEAR     55  45  67 S14       29.75S
$$
MNZ078>079-086>088-094>096-220200-
   Southeast Minnesota

CITY           SKY/WX    TMP DP  RH WIND       PRES   REMARKS
ROCHESTER      MOCLDY    49  43  80 S13       29.77S
RED WING       PTCLDY    54  41  62 S5        29.75S
STANTON        PTCLDY    51  45  79 S8        29.72F
DODGE CENTER   PTCLDY    48  43  81 S10       29.76S
WINONA         PTCLDY    54  39  58 CALM      29.78R
AUSTIN         CLEAR     48  43  81 S13       29.77F
PRESTON        MOCLDY    48  41  76 S12       29.79R
$$
ABBREVIATIONS USED IN REMARKS
   TC - TEMPERATURES IN CELSIUS
  WCI - WIND CHILL INDEX
   HX - HEAT INDEX
  VSB - VISIBILITY
$$




USA.gov is the U.S. government's official web portal to all federal, state and local government web resources and services.